GW2438 Weather Reports


time (UTC)temp
F
wind
direction
speed
knots
gust
knots
rain 1hr
in
rain 24hr
in
rain mn
in
humidity
%
barometer
mb
20260506102612 53 241 0.9 1.7 0.00 0.00 0.00 85 1018.3
20260506101611 53 231 0.9 1.7 0.00 0.00 0.00 85 1018.1
20260506100608 53 245 0.9 1.7 0.00 0.00 0.00 85 1018.1
20260506095606 53 235 1.7 2.6 0.00 0.00 0.00 85 1018.0
20260506094625 53 243 0.9 1.7 0.00 0.00 0.00 86 1017.9
20260506093603 53 243 0.9 2.6 0.00 0.00 0.00 86 1017.8
20260506092602 53 241 1.7 3.5 0.00 0.00 0.00 86 1017.8
20260506091559 53 238 0.9 1.7 0.00 0.00 0.00 87 1017.8
20260506090558 52 235 0.9 3.5 0.00 0.00 0.00 87 1017.8
20260506085557 52 224 0.0 1.7 0.00 0.00 0.00 87 1017.8
20260506084555 52 240 0.0 1.7 0.00 0.00 0.00 87 1017.7
20260506083553 51 0.0 0.0 0.00 0.00 0.00 86 1017.7
20260506082551 51 228 0.0 0.9 0.00 0.00 0.00 85 1017.8
20260506081550 51 241 0.0 0.9 0.00 0.00 0.00 85 1017.7
20260506080548 52 240 0.0 1.7 0.00 0.00 0.00 85 1017.6
20260506072541 53 252 0.9 3.5 0.00 0.00 0.00 84 1017.3
20260506071539 53 252 0.9 2.6 0.00 0.00 0.00 83 1017.1
20260506070538 53 247 0.9 2.6 0.00 0.00 0.00 83 1017.1
20260506061529 55 243 2.6 6.1 0.00 0.00 0.00 81 1016.6
20260506060548 55 234 1.7 3.5 0.00 0.00 0.00 81 1016.4
20260506050516 57 240 2.6 3.5 0.00 0.00 0.00 78 1016.0
20260506044613 58 239 2.6 5.2 0.00 0.00 0.00 77 1015.9
20260506043612 58 252 1.7 5.2 0.00 0.00 0.00 77 1015.9
20260506042610 59 246 1.7 3.5 0.00 0.00 0.00 76 1015.8
20260506041608 59 253 0.9 2.6 0.00 0.00 0.00 76 1015.7
20260506040606 60 245 0.9 2.6 0.00 0.00 0.00 75 1015.7
20260506035605 60 248 1.7 2.6 0.00 0.00 0.00 74 1015.6
20260506034603 60 241 1.7 2.6 0.00 0.00 0.00 73 1015.5
20260506033602 61 243 0.9 1.7 0.00 0.00 0.00 72 1015.3
20260506032620 62 238 0.9 1.7 0.00 0.00 0.00 71 1015.1
20260506031558 62 250 0.9 2.6 0.00 0.00 0.00 71 1015.2
20260506030556 63 238 0.9 1.7 0.00 0.00 0.00 70 1015.2
20260506025614 63 237 0.9 2.6 0.00 0.00 0.00 69 1015.0
20260506024552 64 261 0.9 2.6 0.00 0.00 0.00 68 1015.0
20260506023551 65 239 0.9 3.5 0.00 0.00 0.00 68 1015.0
20260506022610 65 242 0.9 3.5 0.00 0.00 0.00 67 1015.1
20260506021547 65 258 1.7 3.5 0.00 0.00 0.00 67 1015.1
20260506020546 65 280 0.9 2.6 0.00 0.00 0.00 67 1015.1
20260506015544 65 259 1.7 3.5 0.00 0.00 0.00 68 1015.0
20260506014543 65 242 1.7 5.2 0.00 0.00 0.00 68 1015.0
20260506013541 65 230 1.7 5.2 0.00 0.00 0.00 68 1014.9
20260506012539 65 244 1.7 6.1 0.00 0.00 0.00 68 1015.1
20260506011538 65 236 2.6 6.1 0.00 0.00 0.00 67 1015.1
20260506010536 65 233 2.6 5.2 0.00 0.00 0.00 67 1015.1
20260506005534 65 254 2.6 5.2 0.00 0.00 0.00 66 1015.1
20260506004533 66 217 1.7 3.5 0.00 0.00 0.00 66 1015.1
20260506003531 65 255 3.5 7.0 0.00 0.00 0.00 66 1015.3
20260506002529 65 272 2.6 5.2 0.00 0.00 0.00 66 1015.3
20260506001547 66 239 1.7 2.6 0.00 0.00 0.00 65 1015.3
20260506000525 66 229 2.6 7.0 0.00 0.00 0.00 64 1015.3
20260505235524 67 221 0.9 2.6 0.00 0.00 0.00 64 1015.4
20260505234542 67 237 2.6 5.2 0.00 0.00 0.00 64 1015.6
20260505233520 67 228 1.7 6.1 0.00 0.00 0.00 63 1015.7
20260505232518 68 248 3.5 5.2 0.00 0.00 0.00 63 1015.8
20260505231516 68 232 2.6 5.2 0.00 0.00 0.00 61 1015.8
20260505230615 69 222 2.6 5.2 0.00 0.00 0.00 62 1015.9
20260505225633 69 237 2.6 3.5 0.00 0.00 0.00 62 1015.9
20260505224611 68 229 0.9 3.5 0.00 0.00 0.00 62 1016.1
20260505223609 68 181 1.7 3.5 0.00 0.00 0.00 62 1016.2
20260505222608 69 254 1.7 6.1 0.00 0.00 0.00 62 1016.2
20260505221606 68 240 2.6 7.0 0.00 0.00 0.00 63 1016.4
20260505220625 67 234 0.9 2.6 0.00 0.00 0.00 64 1016.4
20260505215603 67 254 0.9 2.6 0.00 0.00 0.00 64 1016.3
20260505214601 67 238 0.9 6.1 0.00 0.00 0.00 65 1016.4
20260505213600 67 266 1.7 3.5 0.00 0.00 0.00 63 1016.6
20260505212558 67 273 0.0 0.9 0.00 0.00 0.00 65 1016.6
20260505211556 67 227 0.9 1.7 0.00 0.00 0.00 64 1016.6
20260505210554 66 234 0.9 3.5 0.00 0.00 0.00 66 1016.6
20260505205553 66 254 0.9 1.7 0.00 0.00 0.00 65 1016.6
20260505204631 66 263 0.9 2.6 0.00 0.00 0.00 63 1016.6
20260505203549 66 200 1.7 3.5 0.00 0.00 0.00 65 1016.7
20260505202548 66 220 1.7 3.5 0.00 0.00 0.00 67 1016.6
20260505201546 65 209 0.9 1.7 0.00 0.00 0.00 67 1016.7
20260505200624 65 221 2.6 5.2 0.00 0.00 0.00 68 1016.7
20260505195542 64 226 0.9 3.5 0.00 0.00 0.00 69 1016.7
20260505194540 63 219 0.9 2.6 0.00 0.00 0.00 70 1016.7
20260505193538 64 254 2.6 6.1 0.00 0.00 0.00 70 1016.7
20260505192536 63 226 0.9 2.6 0.00 0.00 0.00 71 1016.7
20260505191535 63 228 1.7 3.5 0.00 0.00 0.00 70 1016.8
20260505190533 62 209 2.6 5.2 0.00 0.00 0.00 72 1016.7
20260505185611 62 229 2.6 6.1 0.00 0.00 0.00 72 1016.7
20260505184530 62 224 0.9 3.5 0.00 0.00 0.00 72 1016.6
20260505183548 61 204 0.9 2.6 0.00 0.00 0.00 74 1016.7
20260505182526 61 200 2.6 5.2 0.00 0.00 0.00 74 1016.6
20260505181524 60 242 0.9 3.5 0.00 0.00 0.00 75 1016.6
20260505180523 60 250 0.0 2.6 0.00 0.00 0.00 75 1016.6
20260505175542 60 228 0.9 3.5 0.00 0.00 0.00 76 1016.6
20260505174521 60 249 0.9 2.6 0.00 0.00 0.00 76 1016.6
20260505173518 59 237 0.9 1.7 0.00 0.00 0.00 77 1016.6
20260505172516 59 168 0.0 1.7 0.00 0.00 0.00 78 1016.4
20260505171615 58 246 0.9 3.5 0.00 0.00 0.00 78 1016.4
20260505170612 58 241 0.9 2.6 0.00 0.00 0.00 78 1016.4
20260505165611 58 244 0.9 3.5 0.00 0.00 0.00 79 1016.3
20260505164609 57 213 0.9 3.5 0.00 0.00 0.00 79 1016.3
20260505163607 57 227 0.9 2.6 0.00 0.00 0.00 79 1016.2
20260505162606 57 232 1.7 2.6 0.00 0.00 0.00 80 1016.2
20260505161604 57 235 0.9 2.6 0.00 0.00 0.00 80 1016.1
20260505160603 57 222 0.9 3.5 0.00 0.00 0.00 80 1016.0
20260505152556 56 206 1.7 3.5 0.00 0.00 0.00 81 1016.0
20260505151554 56 188 1.7 2.6 0.00 0.00 0.00 81 1015.9
20260505150552 56 229 1.7 6.1 0.00 0.00 0.00 81 1015.8
20260505140543 55 218 1.7 2.6 0.00 0.00 0.00 82 1015.3
20260505124610 55 228 1.7 3.5 0.00 0.00 0.00 83 1014.6
20260505123527 55 213 1.7 5.2 0.00 0.00 0.00 83 1014.5
20260505122525 55 234 0.9 2.6 0.00 0.00 0.00 83 1014.5
20260505121523 55 224 0.9 1.7 0.00 0.00 0.00 83 1014.5
20260505120521 55 184 0.9 1.7 0.00 0.00 0.00 83 1014.4
20260505115519 55 237 0.0 1.7 0.00 0.00 0.00 83 1014.3
20260505114519 55 204 0.0 0.9 0.00 0.00 0.00 83 1014.4
20260505113516 55 238 0.9 2.6 0.00 0.00 0.00 83 1014.4
20260505112615 55 210 1.7 3.5 0.00 0.00 0.00 83 1014.3
20260505111613 55 211 1.7 2.6 0.00 0.00 0.00 83 1014.3
20260505110611 55 264 0.0 2.6 0.00 0.00 0.00 83 1014.1